EW7837 Weather Reports


time (UTC)temp
F
wind
direction
speed
knots
gust
knots
rain 1hr
in
rain 24hr
in
rain mn
in
humidity
%
barometer
mb
20260831220050 81 258 0.0 0.0 0.00 0.00 0.00 69 1009.9
20260831214553 81 274 0.9 0.0 0.00 0.00 0.00 68 1009.7
20260831213056 82 269 0.0 0.0 0.00 0.00 0.00 66 1009.9
20260831211546 82 273 0.0 0.0 0.00 0.00 0.00 67 1010.0
20260831210044 82 264 0.0 0.0 0.00 0.00 0.00 68 1010.1
20260831204544 82 279 0.9 0.0 0.00 0.00 0.00 68 1010.2
20260831203042 81 265 0.0 0.0 0.00 0.00 0.00 69 1010.3
20260831201539 81 246 0.0 0.0 0.00 0.00 0.00 69 1010.2
20260831200039 81 267 0.0 0.0 0.00 0.00 0.00 68 1010.3
20260831194609 81 266 0.0 0.0 0.00 0.00 0.00 69 1010.5
20260831193037 81 264 0.0 0.0 0.00 0.00 0.00 70 1010.5
20260831191534 81 262 0.0 0.0 0.00 0.00 0.00 69 1010.5
20260831190032 81 264 0.0 0.0 0.00 0.00 0.00 69 1010.5
20260831184528 80 274 0.0 0.0 0.00 0.00 0.00 70 1010.5
20260831183027 81 274 0.0 0.0 0.00 0.00 0.00 70 1010.5
20260831181524 81 292 0.0 0.0 0.00 0.00 0.00 70 1010.5
20260831180019 81 252 0.0 0.0 0.00 0.00 0.00 68 1010.3
20260831174524 81 251 0.0 0.0 0.00 0.00 0.00 69 1010.1
20260831173012 81 251 0.0 0.0 0.00 0.00 0.00 69 1010.2
20260831171510 81 251 0.0 0.0 0.00 0.00 0.00 70 1010.1
20260831170039 81 251 0.0 0.0 0.00 0.00 0.00 70 1010.0
20260831164539 80 251 0.0 0.0 0.00 0.00 0.00 72 1010.0
20260831163032 79 251 0.0 0.0 0.00 0.00 0.00 72 1010.0
20260831161520 79 251 0.0 0.0 0.00 0.00 0.00 73 1010.0
20260831160020 79 251 0.0 0.0 0.00 0.00 0.00 74 1010.0
20260831154514 77 251 0.0 0.0 0.00 0.00 0.00 77 1010.1
20260831153010 76 251 0.0 0.0 0.00 0.00 0.00 78 1010.0
20260831151501 75 251 0.0 0.0 0.00 0.00 0.00 81 1010.0
20260831150057 74 251 0.0 0.0 0.00 0.00 0.00 82 1009.8
20260831144554 73 251 0.0 0.0 0.00 0.00 0.00 83 1009.7
20260831143108 72 251 0.0 0.0 0.00 0.00 0.00 84 1009.6
20260831141609 72 251 0.0 0.0 0.00 0.00 0.00 84 1009.5
20260831140047 72 251 0.0 0.0 0.00 0.00 0.00 84 1009.1
20260831134544 72 251 0.0 0.0 0.00 0.00 0.00 83 1008.9
20260831133038 73 251 0.0 0.0 0.00 0.00 0.00 83 1008.8
20260831131537 73 251 0.0 0.0 0.00 0.00 0.00 83 1008.8
20260831130043 73 251 0.0 0.0 0.00 0.00 0.00 83 1008.7
20260831124539 73 251 0.0 0.0 0.00 0.00 0.00 83 1008.7
20260831123034 73 251 0.0 0.0 0.00 0.00 0.00 84 1008.6
20260831121534 73 251 0.0 0.0 0.00 0.00 0.00 84 1008.6
20260831120034 73 251 0.0 0.0 0.00 0.00 0.00 84 1008.5
20260831114536 73 251 0.0 0.0 0.00 0.00 0.00 84 1008.5
20260831113024 73 251 0.0 0.0 0.00 0.00 0.00 84 1008.6
20260831111607 73 251 0.0 0.0 0.00 0.00 0.00 84 1008.7
20260831110044 73 251 0.0 0.0 0.00 0.00 0.00 84 1008.6
20260831104544 73 251 0.0 0.0 0.00 0.00 0.00 84 1008.8
20260831103043 73 251 0.0 0.0 0.00 0.00 0.00 85 1008.8
20260831101551 73 251 0.0 0.0 0.00 0.00 0.00 85 1008.8
20260831100057 73 251 0.0 0.0 0.00 0.00 0.00 85 1008.8
20260831094547 73 251 0.0 0.0 0.00 0.00 0.00 85 1008.8
20260831093049 74 251 0.0 0.0 0.00 0.00 0.00 85 1008.8
20260831091548 74 251 0.0 0.0 0.00 0.00 0.00 85 1008.8
20260831084542 74 251 0.0 0.0 0.00 0.00 0.00 85 1008.9
20260831083042 74 251 0.0 0.0 0.00 0.00 0.00 86 1009.0
20260831081541 74 251 0.0 0.0 0.00 0.00 0.00 86 1008.9
20260831080039 74 251 0.0 0.0 0.00 0.00 0.00 86 1009.0
20260831074538 74 251 0.0 0.0 0.00 0.00 0.00 86 1009.0
20260831073038 74 251 0.0 0.0 0.00 0.00 0.00 87 1009.0
20260831071537 74 251 0.0 0.0 0.00 0.00 0.00 87 1009.0
20260831070037 74 251 0.0 0.0 0.00 0.00 0.00 87 1009.0
20260831064533 74 251 0.0 0.0 0.00 0.00 0.00 88 1009.1
20260831063033 73 251 0.0 0.0 0.00 0.00 0.00 88 1009.0
20260831061534 73 251 0.0 0.0 0.00 0.00 0.00 88 1009.0
20260831060001 73 251 0.0 0.0 0.00 0.00 0.00 87 1009.0
20260831054501 72 251 0.0 0.0 0.00 0.00 0.00 87 1008.9
20260831053100 73 250 0.0 0.0 0.00 0.00 0.00 86 1008.9
20260831051530 73 251 0.0 0.0 0.00 0.00 0.00 86 1008.9
20260831050027 74 251 0.0 0.0 0.00 0.00 0.00 87 1008.9
20260831044525 74 251 0.0 0.0 0.00 0.00 0.00 87 1008.8
20260831043023 74 251 0.0 0.0 0.00 0.00 0.00 87 1008.6
20260831041528 74 251 0.0 0.0 0.00 0.00 0.00 87 1008.5
20260831040018 74 251 0.0 0.0 0.00 0.00 0.00 86 1008.4
20260831034548 74 251 0.0 0.0 0.00 0.00 0.00 86 1008.1
20260831033046 74 251 0.0 0.0 0.00 0.00 0.00 85 1007.9
20260831031517 74 251 0.0 0.0 0.00 0.00 0.00 84 1007.8
20260831030014 75 251 0.0 0.0 0.00 0.00 0.00 83 1007.7
20260831024507 75 251 0.0 0.0 0.00 0.00 0.00 82 1007.7
20260831023005 76 251 0.0 0.0 0.00 0.00 0.00 81 1007.6
20260831021505 77 251 0.0 0.0 0.00 0.00 0.00 79 1007.5
20260831020005 77 251 0.0 0.0 0.00 0.00 0.00 77 1007.5
20260831014501 78 252 0.0 0.0 0.00 0.00 0.00 77 1007.4
20260831013002 79 251 0.0 0.0 0.00 0.00 0.00 75 1007.5
20260831011500 79 251 0.0 0.0 0.00 0.00 0.00 75 1007.5
20260831010100 80 251 0.0 0.0 0.00 0.00 0.00 73 1007.4
20260831004559 80 248 0.0 0.0 0.00 0.00 0.00 73 1007.5
20260831003100 81 252 0.0 0.0 0.00 0.00 0.00 72 1007.5
20260831001556 82 254 0.0 0.0 0.00 0.00 0.00 71 1007.4
20260831000056 81 261 0.0 0.0 0.00 0.00 0.00 72 1007.6
20260830234604 82 252 0.0 0.0 0.00 0.00 0.00 72 1007.6
20260830233053 82 265 0.0 0.0 0.00 0.00 0.00 71 1007.8
20260830231553 82 250 0.0 0.0 0.00 0.00 0.00 71 1007.7
20260830230052 83 253 0.0 0.0 0.00 0.00 0.00 71 1007.8
20260830224554 83 263 0.0 0.0 0.00 0.00 0.00 70 1007.9
20260830223051 83 259 0.0 0.0 0.00 0.00 0.00 69 1007.9
20260830221550 82 255 0.0 0.0 0.00 0.00 0.00 70 1008.1